Regional Weather Roundup
Issued by NWS Goodland, KS

Home | Current Version | Previous Version | Graphics & Text | Print | Product List | Glossary On
Versions: 1 2 3 4 5 6 7 8 9 10 11 12 13 14 15 16 17 18 19 20 21 22 23 24 25 26 27 28 29 30 31 32 33 34 35 36 37 38 39 40 41 42 43 44 45 46 47 48 49 50
000
ASUS43 KGLD 101959
RWRGLD

GOODLAND FORECAST AREA HOURLY WEATHER ROUNDUP
NATIONAL WEATHER SERVICE GOODLAND KS
100 PM MST SUN DEC 10 2017

...OFFICIAL OBSERVATIONS...

CITY           SKY/WX    TMP DP  RH WIND       PRES   REMARKS
GOODLAND KS    SUNNY     63   1   8 NW12      30.31F
HILL CITY KS   SUNNY     66  11  11 NW10      30.25F
IMPERIAL NEB   SUNNY     63   5  10 NW16      30.28F
MCCOOK NEB     SUNNY     64  12  13 W16       30.23F
AKRON CO       SUNNY     57  -1   9 W10       30.34F
BURLINGTON CO  SUNNY     62   3   9 N12G21    30.34F
LIMON CO       SUNNY     60  -9   6 NW6       30.37F
$$

...UNOFFICIAL OBSERVATIONS...

CITY           SKY/WX    TMP DP  RH WIND       PRES   REMARKS
LENORA KS        N/A     63  32  31 W9          N/A
NORTON KS      SUNNY     64   1   8 W15       30.23
SHARON SPRINGS   N/A     63   6  10 NW10        N/A
TRENTON NEB      N/A     63  32  31 NW10        N/A
KIT CARSON CO    N/A     60   7  12 MISG        N/A
YUMA CO        FAIR      59   1  10 NW13      30.33F
$$




USA.gov is the U.S. government's official web portal to all federal, state and local government web resources and services.